OBJECT C, 60205

Orbit data source: Space-Track

You're viewing an Uncataloged Satellite

Recently launched and/or uncataloged satellites may have evolving metadata. Metadata may include but not limited to: Owner, Maufacturer, Bus, Motor, and Mission.

OBJECT C, 60205 is a satellite owned by Teachers in Space (US) in SSO that was launched on Thu, 04 Jul 2024 UTC via an FIREFLY ALPHA launch vehicle from the Air Force Western Test Range (AFWTR). Unknown objects in Earth's orbit typically refer to objects detected orbiting the Earth but have not yet been identified or cataloged. These objects could be anything from previously untracked satellites, spent rocket stages, debris from satellite collisions, or even natural meteoroids temporarily captured by Earth's gravity.

Loading next visibility...
Identifier
60205, 2024-125C
Orbit
SSO
Country
Flag of USUS
Related business
None
Manufacturer
Quub
Mission
Operational spacecraft
Bus & Motor
CUBESAT 3U, Unknown motor
Mass
3 kg wet, 3 kg dry
Launch date (UTC)
2024-07-04 (1 year ago)
Launch vehicle
FIREFLY ALPHA
Launch site
Air Force Western Test Range (AFWTR)
Object type
Unknown
Shape & HBR
Unknown
Radar Cross Section
Small (<0.1 m²)

Expand to show TLE details & history
Last TLE update: 15 hours ago

TLE from 15 hours ago
0 OBJECT C
1 60205U 24125C   25260.55262543  .00035823  00000-0  67675-3 0  9999
2 60205  97.2639 113.9378 0014127 114.9784 245.2936 15.48243868 67500
Epoch: 2025-09-17T13:15Z
TLE epoch observation values (Epoch: 2025-09-17T13:15:46.837Z)
Latitude
0.00001°
Longitude
-81.73429°
Altitude
429.023 km
Speed
7.652 km/s
True Right ascension
07h 35m 45s
True Declination
0° 00' 00"
Sunlit
Object was in daylight at epoch
Visualization orbit readout
Latitude
Unknown
Longitude
Unknown
Altitude
Unknown
Speed
Unknown
Apparent Right ascension
Unknown
Apparent Declination
Unknown
Sunlit
N/A
Visualization observer readout
Local Sidereal Time
21:09:39
Azimuth
Unknown
Elevation
Unknown
Doppler factor
Unknown
Orbital elements
Apogee altitude
428.387 km
Perigee altitude
409.183 km
Semi-major axis
6,796.922 km
Eccentricity
0.00141
Inclination
97.2639°
RAAN
113.9378°
Arg. of periapsis
114.9784°
True anomaly
245.14664°
Mean anomaly
245.2936°
Eccentric anomaly
245.22011°
Mean motion
3.87324 °/min
Orbital period
92.95 mins
BSTAR
0.00067675
Loading maneuver chart data...
Computing Atmospheric mass density...
Loading historical data...
Loading historical data...
Loading historical data...
Loading historical data...
Loading historical data...
Loading historical data...
Loading historical data...

Documentation

Showing up to 5 results
|